Погода в Николаевке

Россия / Иркутская область     55°47′28″N   98°10′45″E
темп.,
°C
ветер,
м/с
пор.,
м/с
влажн.,
%
обл.,
%
осадки,
мм/ч
давл.,
гПа
погр.,
м
8 марта, пн
пн823:00−7з41485100 0.0 10161051
02:00−9з5148383 0.0 1020744
05:00−12з413897 0.0 1024586
08:00−14зюз39937 0.0 1027233
11:00−9зюз258550 0.0 1026339
14:00−4ю127032 0.0 1024663
17:00−4юв367775 0.0 1020570
20:00−6юв5128987 0.0 1018427
9 марта, вт
вт923:00−7юв4992100 0.0 1014251
02:00−9ююв2493100 0.0 1012103
05:00−5ююз2584100 0.0 101194
08:000зюз41486100 0.1 10121174
11:00+1з5148195 0.2 10131850
14:000зсз7148392 0.8 10161592
17:00−4з71664100 0.1 10201597
20:00−8з4138392 0.1 1025958
10 марта, ср
ср1023:00−11зюз3108931 0.0 1027292
02:00−12юз249016 0.0 102788
05:00−13ююз238859 0.0 102638
08:00−13ююв228879 0.0 102438
11:00−7ююв258359 0.0 1021214
14:00−1ююз267857 0.0 1018538
17:00+1з2108311 0.0 10171486
20:00−3юз129153 0.0 101821
11 марта, чт
чт1123:00−5ююз129295 0.0 101921
02:00−6ююв229162 0.0 101823
05:00−7юв239459 0.0 101552
08:00−9юв359271 0.0 1011108
11:00−2ююв3780100 0.0 1007218
14:00+4ююз21485100 0.0 1006606
17:00+4зюз21293100 0.0 1008845
20:000юз388799 0.0 1009188
12 марта, пт
пт1223:00−1зюз3118567 0.0 1011339
02:00−1зсз4109383 0.1 1014556
05:00−5з41383100 0.3 1018879
08:00−6з31189100 0.3 1020861
11:00−3зсз4107493 0.0 10201183
14:00−1ююз386750 0.0 10181230
17:00+1ю4137474 0.0 10141733
20:00−2зюз3137787 0.1 1013936